Location: Fernhill
(41.0167°S, 175.6333°E)
Time: 12:02:27
(UTC+00:00)

Cosmos 1763 Rocket - Pass Details

Date: 08 November 2025
Orbit: 728 x 774 km, 74.0° (Epoch: 09 December)

Event Time Altitude Azimuth Distance (km) Brightness Sun altitude
Exits shadow 09:14:58 38° 80° (E) 1,112 3.9 -20.6°
Drops below altitude 10° 09:19:37 10° 145° (SE) 2,258 6.1 -21.2°
Sets 09:22:06 0° 152° (SSE) 3,187 7.0 -21.5°
